Home > Weather > Emmen > Past weeks

Flag for Switzerland Past Weather in Emmen, Lucerne, Switzerland — Yesterday and Last 2 Weeks

Now
67 °F

Mild.


Feels Like: 67 °F
Forecast: 59 / 73 °F
Wind: 1 mph from Southwest

Location: Giswil

Current Time: Aug 28, 2016 at 11:05:00 PM

Latest Report: Aug 28, 2016 at 10:00 PM


Visibility: N/A

Pressure: 30.07 "Hg

Humidity: 88%

Dew Point: 64 °F

Location of EmmenLocation

Past Weather in Emmen — Graph

°F

Emmen Temperature Yesterday

Maximum temperature yesterday: 86 °F (at 5:00 PM)
Minimum temperature yesterday: 58 °F (at 6:00 AM)
Average temperature yesterday: 70 °F

High & Low Weather Summary for the Past Weeks

 TemperatureHumidityPressure
High87 °F (Aug 26, 5:00 PM)100% (Aug 14, 3:00 AM)30.41 "Hg (Aug 14, 3:00 AM)
Low49 °F (Aug 22, 7:00 AM)44% (Aug 26, 5:00 PM)29.83 "Hg (Aug 17, 6:00 PM)
Average66 °F82%30.08 "Hg
* Reported Aug 13 9:00 PM — Aug 28 9:00 PM, Emmen, Weather by CustomWeather, © 2016

Note: Actual official high and low records may vary slightly from our data, if they occured in-between our weather recording intervals... More about our weather records

Advertising

Emmen Weather History for the Previous 24 Hours

Scroll right to see more
 ConditionsComfort  
Time TempWeatherWind HumidityBarometerVisibility
9:00 PM
Sun, Aug 28
70 °FMild.3 mph80%30.04 "HgN/A
8:00 PM74 °FMild.3 mph77%30.01 "HgN/A
7:00 PM79 °FWarm.3 mph67%29.98 "HgN/A
6:00 PM83 °FWarm.1 mph61%29.97 "HgN/A
5:00 PM83 °FWarm.1 mph51%29.98 "HgN/A
4:00 PM82 °FWarm.3 mph58%29.99 "HgN/A
3:00 PM81 °FWarm.3 mph56%30.01 "HgN/A
2:00 PM81 °FWarm.1 mph51%30.02 "HgN/A
1:00 PM81 °FWarm.1 mph48%30.03 "HgN/A
12:00 PM77 °FWarm.1 mph60%30.06 "HgN/A
11:00 AM74 °FMild.1 mph63%30.08 "HgN/A
10:00 AM71 °FMild.2 mph73%30.09 "HgN/A
9:00 AM67 °FMild.1 mph86%30.09 "HgN/A
8:00 AM62 °FCool.2 mph99%30.12 "HgN/A
7:00 AM59 °FCool.1 mph99%30.13 "HgN/A
6:00 AM60 °FCool.3 mph98%30.12 "HgN/A
5:00 AM62 °FCool.2 mph97%30.11 "HgN/A
4:00 AM63 °FMild.3 mph93%30.11 "HgN/A
3:00 AM66 °FMild.3 mph85%30.09 "HgN/A
2:00 AM67 °FMild.2 mph84%30.13 "HgN/A
1:00 AM69 °FMild.6 mph71%30.12 "HgN/A
12:00 AM72 °FMild.12 mph77%30.10 "HgN/A
11:00 PM
Sat, Aug 27
68 °FMild.2 mph91%30.07 "HgN/A
Weather by CustomWeather, © 2016

See weather overviewHow to use our weather pages